Location: *
(43.4500°N, 13.1667°E)
Time: 12:53:43
(UTC+00:00)

Daily predictions for brighter satellites

Satellite Brightness Start Highest point End
(mag) Time Altitude Azimuth Time Altitude Azimuth Time Altitude Azimuth
Lacrosse 5 2.1 16:34:49 10° NW 16:39:46 50° NE 16:44:40 10° ESE
CSL-04 Rocket 4.5 16:35:36 10° ESE 16:40:18 30° ENE 16:44:58 10° N
YAOGAN 6 3.7 16:39:06 10° SE 16:42:05 24° ENE 16:45:02 10° NNE
YAOGAN 1 3.7 16:39:12 10° ESE 16:42:38 24° ENE 16:46:06 10° NNE
SKYMED 2 4.2 16:40:46 10° NNE 16:44:46 34° E 16:48:43 10° SSE
Cosmos 1726 Rocket 4.4 16:43:48 10° SSW 16:48:05 54° W 16:52:22 10° N
Gbstr 26 Del rocket 4.0 16:42:24 10° WNW 16:48:13 79° NNE 16:55:25 10° ESE
Unknown 3.2 16:46:24 10° NW 16:49:46 59° NNE 16:53:08 10° ESE
CZ-4 R/B 2.1 16:45:59 10° SE 16:49:47 34° ENE 16:53:38 10° N
Shenzhou-11 Module 3.3 16:48:17 10° W 16:50:49 31° SSW 16:53:19 10° SE
Cosmos 1777 Rocket 4.0 16:45:38 10° NNW 16:50:53 84° ENE 16:56:04 10° SSE
Meteor 1-11 4.3 16:47:49 10° N 16:53:38 72° ENE 16:59:25 10° SSE
Cosmos 1461 2.8 16:50:45 10° NNW 16:54:52 78° NE 16:59:07 10° SE
ATLAS 3B R/B 3.5 16:53:30 10° SSE 16:59:01 27° ESE 17:04:27 10° NE
USA 116 4.4 16:57:23 10° NE 17:00:17 26° E 17:03:23 10° SSE
Cosmos 1833 Rocket 2.6 16:56:26 10° NNW 17:02:04 76° ENE 17:07:42 10° SSE
Cosmos 44 3.9 16:57:39 10° S 17:02:11 36° ESE 17:06:31 10° NE
CENTAUR R/B 3.2 16:59:47 10° S 17:04:47 30° ESE 17:10:24 10° NE
FALCON 9 DEB 3.1 17:02:39 10° NW 17:06:07 68° NNE 17:09:09 13° ESE
Cosmos 1242 Rocket 4.5 17:07:43 10° NNW 17:11:06 35° W 17:14:27 10° SSW
Cosmos 2084 Rocket 3.7 17:08:35 10° NNW 17:12:56 53° NE 17:17:01 11° SE
Falcon 9 debris 3.1 17:15:00 10° NW 17:18:27 85° SW 17:21:07 16° SE
SJ 16-02 2.7 17:15:43 10° NNE 17:18:51 19° ENE 17:19:25 18° ENE
Cosmos 1153 Rocket 4.4 17:12:59 10° N 17:19:04 62° E 17:25:09 10° SSE
Cosmos 1300 2.9 17:17:07 10° SSE 17:20:45 45° E 17:24:25 10° NNE
Abrixas rocket 3.3 17:20:20 10° WNW 17:23:08 32° N 17:24:36 21° NE
Envisat 3.3 17:19:09 10° S 17:24:13 73° WSW 17:29:20 10° NNW
Unknown 3.1 17:21:59 10° NW 17:25:31 83° NNE 17:27:35 23° ESE
COBE Rocket 4.4 17:20:52 10° N 17:25:57 66° WNW 17:30:54 10° SSW
CSL-04 Debris 4.1 17:25:44 10° SSE 17:31:11 78° ENE 17:36:41 10° NNW
COSMO-SKYMED 1 2.8 17:28:34 10° N 17:32:55 71° WNW 17:37:14 10° SSW
CZ-2D R/B 3.5 17:31:48 10° SE 17:35:29 45° ENE 17:39:13 10° N
Cosmos 1898 Rocket 3.8 17:31:08 10° N 17:36:11 43° ENE 17:39:32 20° SE
Cosmos 2082 Rocket 2.3 17:31:38 10° NNW 17:37:22 84° WSW 17:43:01 10° SSE
USA 238 DEB 3.9 17:31:06 10° SW 17:37:47 71° NW 17:44:43 10° NNE
USA 238 3.9 17:31:12 10° SW 17:37:52 71° NW 17:44:48 10° NE
H-2A R/B 3.7 17:40:42 17° NE 17:40:42 17° NE 17:43:23 10° NNE
Cosmos 1943 Rocket 3.7 17:37:01 10° SSE 17:38:58 17° SE 17:38:58 17° SE
Cosmos 2058 2.9 17:37:13 10° N 17:41:22 55° E 17:45:29 10° SSE
Unknown 3.6 17:42:04 10° NW 17:45:42 50° NNE 17:46:21 44° ENE
Unknown 3.6 17:43:05 10° WNW 17:46:33 58° SW 17:47:59 31° SSE
Cosmos 1459 Rocket 4.0 17:40:58 10° N 17:47:09 60° E 17:53:23 10° SSE
Cosmos 1076 Rocket 3.5 17:43:22 10° N 17:47:45 88° W 17:52:04 10° S
Cosmos 1939 Rocket 2.8 17:46:40 17° SSE 17:49:39 61° ENE 17:53:41 10° N
IRS-1A Rocket 4.3 17:47:29 15° SE 17:51:47 51° ENE 17:57:08 10° N
DMSP B5D1-3 4.4 17:52:31 10° NNE 17:57:41 82° ESE 18:02:50 10° SSW
In-Cosmos 22 Rocket 4.0 17:53:40 10° N 17:59:07 72° E 18:04:41 10° SSE
NOSS 3-2 (A) 3.9 17:54:00 10° SW 17:59:41 58° NW 18:06:11 10° NNE
Cosmos 2061 Rocket 4.0 17:54:40 10° N 18:00:47 55° ENE 18:06:01 14° SSE
Cosmos 2151 3.6 17:59:18 10° N 18:02:29 39° NE 18:02:29 39° NE
Okean 3 Rocket 3.5 18:00:30 10° N 18:05:00 64° E 18:05:53 51° SE
Ariane Rocket 2.9 18:02:13 13° SSE 18:06:51 78° ENE 18:11:59 10° NNW
Meteor 2-1 Rocket 4.1 18:04:16 10° S 18:09:46 87° W 18:15:24 10° N
Cosmos 468 Rocket 3.9 18:04:55 10° SSW 18:10:11 88° ESE 18:15:28 10° NNE
ADEOS Rocket 3.8 18:06:39 10° NNE 18:19:25 13° SSE 18:20:00 10° SSE
Cosmos 2278 Rocket 4.3 18:12:15 10° WSW 18:16:49 24° NW 18:21:24 10° N
Cosmos 2173 Rocket 4.0 18:11:44 10° N 18:17:58 81° W 18:24:06 10° S
YAOGAN 1 4.3 18:14:39 10° SSW 18:18:33 33° W 18:22:30 10° NNW
Cosmos 990 Rocket 3.9 18:16:36 10° NNW 18:21:51 83° WSW 18:23:48 40° SSE
Lacrosse 5 3.4 18:18:04 10° WNW 18:22:33 32° SW 18:25:45 17° S
Cosmos 2297 4.2 18:16:57 10° SW 18:22:34 60° WNW 18:28:16 10° NNE
Cosmos 1864 Rocket 4.4 18:18:11 10° N 18:24:18 64° E 18:25:35 52° SE
Cosmos 1937 Rocket 3.3 18:19:34 10° NNW 18:24:44 81° ENE 18:25:12 73° SE
CZ-4 R/B 4.0 18:21:38 10° SW 18:24:51 21° W 18:28:08 10° NW
ARGOS 4.4 18:27:50 28° NNE 18:27:50 28° NNE 18:30:46 10° N
NOSS 3-2 (C) 3.9 18:21:06 10° SW 18:26:49 58° NW 18:31:43 18° NNE
Cosmos 858 Rocket 4.3 18:21:47 10° NNW 18:27:00 88° ENE 18:27:44 67° SSE
BREEZE-M DEB (TANK) 2.9 18:19:39 10° WSW 18:28:00 62° NNW 18:28:17 60° N
Cosmos 2123 Rocket 3.8 18:24:33 10° S 18:30:49 73° E 18:37:04 10° NNE
Cosmos 1802 Rocket 4.1 18:26:06 10° N 18:32:32 77° W 18:38:52 10° S
Cosmos 1570 Rocket 4.0 18:27:30 10° SSW 18:32:50 83° WNW 18:34:59 38° NNE
ATLAS CENTAUR R/B 3.9 18:35:03 10° N 18:36:02 14° N 18:36:02 14° N
Cosmos-2242 3.8 18:35:11 10° SSW 18:39:25 51° WNW 18:43:39 10° N
Cosmos 1725 Rocket 3.9 18:36:14 10° N 18:42:34 86° E 18:43:51 60° SSE
Cosmos 1763 Rocket 3.9 18:39:38 10° SSW 18:44:53 60° WNW 18:47:27 29° N
ATLAS 3B R/B 2.9 18:42:34 10° SW 18:49:14 63° NW 18:52:29 31° NNE
Cosmos 2208 Rocket 4.3 18:45:08 10° SSW 18:49:40 62° WSW 18:49:40 62° WSW
Cosmos 2344 4.5 18:44:46 10° S 18:48:37 30° S 18:48:37 30° S
CENTAUR R/B 3.1 18:49:04 10° WSW 18:54:58 55° NW 18:58:22 29° NNE
SJ 16-02 2.8 18:53:30 10° NNW 18:56:27 35° WNW 18:56:27 35° WNW
Cosmos 2369 Rocket 4.2 19:02:53 10° SSW 19:04:06 17° SSW 19:04:06 17° SSW
H-2A R/B 3.6 19:21:20 31° NNW 19:21:20 31° NNW 19:24:05 10° NNW
Cosmos 1943 Rocket 4.1 19:18:52 10° SW 19:20:37 21° SW 19:20:37 21° SW
ADEOS Rocket 4.3 19:52:01 10° N 19:59:06 45° WNW 19:59:59 43° W
